CAPE
148 213 0 0 0 0 0 0 0 0 0 0 0 0 0 0 0 0 2 0 0 67 36 140 214 429 980 868 1050 822 949 949 818 520 312 596 536 624 834 789 933 676 676 703 820 634 475 520 533 462 576 655 668 594 610 605 506 599 515 537 418 298 335 315 394 415 361 465 482 525 503 386 62 221 565 968 1178 1212 1303 1240 1190 1137 1033 1248 1147 1287 1404 1374 1334 1114 970 1059 753 808 718 697 787
0 0 0 0 0 0 0 0 0 0 0 0 0 0 0 1 0 105 8 208 70 26 111 403 308 580 703 489 514 639 546 554 733 607 614 492 863 898 970 891 915 645 602 740 717 436 495 531 603 594 651 636 656 616 605 588 600 551 336 194 171 126 138 205 388 461 466 518 443 564 557 518 428 290 455 703 941 1297 1338 1312 1088 1121 1090 1282 1287 1369 1428 1419 1345 1122 1028 1073 1034 702 941 835 894
0 0 0 0 0 0 0 0 0 0 0 0 0 0 0 0 154 14 148 118 186 117 132 341 270 298 264 565 644 811 500 803 882 596 571 704 858 880 965 639 552 616 667 669 431 462 539 700 680 665 667 619 583 562 588 586 504 440 232 107 79 96 176 193 402 568 537 494 573 622 591 580 544 663 643 646 1108 1322 1373 1333 1159 1214 1104 1261 1416 1397 1454 1442 1367 1156 1078 1187 1092 974 903 808 619
9 1 7 0 0 0 0 0 0 0 0 0 0 35 550 222 0 209 196 118 213 27 71 289 396 769 670 545 617 825 802 429 586 555 639 608 880 1031 1228 964 447 796 651 531 341 453 678 671 584 545 511 524 513 488 456 438 452 308 84 49 57 87 179 287 452 594 673 715 813 732 665 637 734 894 898 738 1451 1389 1332 1307 1371 1303 1385 1336 1482 1440 1520 1362 1253 1139 1168 1002 1000 919 803 725 576
0 0 0 0 0 0 0 5 0 0 0 0 10 169 175 335 432 264 203 76 150 152 46 299 350 691 753 855 846 662 771 652 795 697 652 866 948 1143 1294 902 494 200 271 130 286 612 610 562 531 493 514 506 531 424 413 429 297 120 84 41 66 112 168 263 460 574 677 825 916 991 918 865 874 910 825 964 1344 1356 1422 1329 1320 1290 1333 1301 1384 1405 1447 1438 1323 1305 1160 1070 1022 874 818 706 584
0 0 0 0 0 0 0 0 0 0 0 0 31 159 358 726 641 277 356 441 182 284 569 385 431 921 868 760 871 710 754 838 778 867 911 839 1130 986 779 519 365 305 345 226 213 280 532 549 556 503 490 533 546 404 399 416 234 184 115 107 118 90 101 264 369 482 711 885 968 1086 1018 933 882 958 888 1034 1521 1339 1457 1382 1374 1330 1159 1374 1496 1390 1532 1465 1382 1307 1233 1213 1189 1077 872 514 544
0 0 0 0 0 0 0 0 0 0 2 50 158 192 152 536 534 403 308 192 144 186 598 558 553 726 717 623 911 816 1028 859 813 759 1055 1070 1328 1021 984 260 238 221 188 123 291 402 591 634 526 562 478 524 513 442 391 317 316 241 179 197 116 80 114 187 396 539 804 934 1025 1204 1120 967 946 907 829 1201 1446 1571 1473 1387 1402 1467 1451 1565 1526 1517 1573 1531 1454 1302 1348 1303 1236 1095 862 740 751
0 0 0 0 0 0 0 0 0 0 4 48 136 162 601 455 368 491 328 290 124 287 372 538 618 702 621 662 753 710 1029 1097 1141 1184 1136 1480 1302 449 419 238 272 237 95 196 183 405 742 558 497 582 458 370 561 529 415 433 339 282 374 165 121 79 52 172 267 511 684 997 1064 1261 1255 982 895 942 949 1387 1618 1732 1547 1464 1680 1586 1514 1507 1385 1510 1408 1345 1406 1333 1198 1206 1098 969 914 840 701
0 0 0 0 0 0 1 0 0 0 14 324 179 430 347 402 442 293 733 223 368 445 398 345 475 677 639 786 685 776 797 856 1134 1267 1213 1416 1045 417 289 190 77 74 153 217 295 390 402 532 593 394 254 321 526 632 547 486 419 412 240 123 68 30 55 116 259 450 754 867 1034 1304 1292 984 913 1000 1111 1473 1616 1718 1590 1566 1709 1696 1652 1494 1474 1447 1365 1339 1301 1182 1157 1156 979 950 914 827 903
0 0 0 0 0 0 0 1 0 2 1 11 113 113 108 408 683 551 267 229 538 684 668 704 626 804 762 716 552 613 787 1064 870 769 458 572 514 494 328 299 105 178 226 299 292 243 395 719 527 355 216 253 600 669 619 592 399 304 136 46 7 2 34 118 252 601 721 923 1057 1135 1233 1057 916 997 1206 1594 1673 1795 1779 1686 1651 1670 1690 1518 1519 1539 1450 1374 1342 1351 1185 1094 1056 1080 899 818 674
0 0 0 0 2 2 0 0 1 8 1 50 4 228 450 342 342 385 351 363 539 556 605 820 887 752 774 630 624 529 839 941 546 346 374 370 342 410 287 397 445 508 320 333 374 418 409 462 515 364 185 255 628 563 628 498 332 166 51 15 0 0 31 80 300 580 728 900 926 1140 1222 1193 1030 1128 1351 1698 1542 1725 1708 1742 1617 1634 1576 1515 1552 1488 1466 1374 1410 1367 1314 1151 1138 915 694 709 668
1 1 2 0 0 0 0 5 2 3 5 350 236 429 213 274 326 200 518 335 531 706 823 857 826 805 843 711 527 593 648 582 449 479 424 439 255 352 210 360 370 383 483 283 448 577 709 762 376 395 229 277 394 477 489 463 320 102 102 30 0 0 8 89 294 487 666 800 953 1028 1125 1218 1308 1464 1536 1768 1779 1657 1683 1729 1678 1620 1637 1627 1533 1461 1452 1542 1448 1292 1182 1106 1002 966 841 877 943
1 0 0 0 4 0 0 0 5 2 0 170 212 332 190 567 94 168 322 356 550 984 970 1000 894 854 813 723 660 551 463 373 226 307 239 154 138 200 276 349 514 333 248 332 323 434 809 688 461 326 308 163 233 175 316 363 222 171 44 65 0 0 5 47 230 360 632 734 794 810 980 1090 1311 1467 1598 1672 1690 1801 1857 1784 1863 1717 1734 1771 1643 1690 1561 1584 1683 1212 1166 1239 1109 839 920 957 1006
4 3 3 0 0 0 0 4 2 7 195 255 219 190 164 311 159 552 263 609 683 635 804 780 828 939 931 808 674 558 406 268 180 136 111 152 139 252 264 296 256 199 326 446 694 721 864 773 696 575 698 572 251 207 310 247 170 167 182 39 0 0 0 10 96 245 322 504 418 442 762 1060 1104 1221 1389 1636 1804 1781 1587 1722 1698 1915 1790 1851 1842 1642 1758 1764 1422 1336 1394 1274 1267 1192 929 1032 1148
1 3 2 2 2 0 2 0 2 0 68 238 348 212 312 132 494 145 472 672 842 947 927 663 524 406 698 734 624 561 325 372 280 133 25 67 66 144 266 174 236 333 532 480 1094 1000 715 594 669 488 466 390 488 504 509 347 361 232 177 122 1 0 0 0 21 57 21 54 158 202 460 790 864 820 1328 1496 1596 1690 1318 1244 1719 1786 1722 1982 1865 2007 1915 1733 1464 1533 1611 1448 1398 1250 1018 907 1078
1 1 0 4 5 8 7 0 2 3 8 75 211 183 92 159 170 180 640 638 783 779 878 1045 859 573 648 622 839 430 262 360 278 42 26 71 72 92 115 196 187 266 454 602 683 668 459 344 474 403 484 537 550 534 505 455 524 541 228 274 0 0 0 19 13 50 31 30 163 198 273 887 767 778 998 1355 1178 1872 1314 1303 1420 1595 1440 1445 1647 1534 1781 1940 1798 1753 1326 1273 1265 1283 1260 1137 1136
4 16 8 9 58 53 14 0 2 30 155 54 86 81 83 406 323 318 341 807 904 924 960 1016 964 663 623 864 569 435 215 482 252 68 84 70 165 170 228 210 390 435 486 708 683 506 308 348 453 550 573 505 553 483 586 331 396 938 502 373 128 0 0 0 20 14 7 9 41 83 142 333 578 678 916 490 913 894 864 908 1315 1228 1323 1078 1174 1195 1297 1576 1555 1422 1381 1511 1574 1782 1552 1238 1004
66 88 115 0 19 52 25 0 2 2 99 39 85 311 136 46 285 133 508 699 760 853 986 958 894 1087 744 528 610 483 449 413 213 138 145 131 237 181 203 234 452 476 636 404 643 550 520 542 312 593 556 442 540 414 473 258 399 642 565 814 253 30 118 118 149 87 81 192 0 125 344 626 779 432 485 246 756 821 1116 782 1087 1170 1222 1255 1343 1420 1371 1252 1577 1647 1537 1697 1882 1696 1243 1274 1237
74 229 62 28 121 42 0 0 0 0 142 448 148 117 669 472 503 426 741 590 799 908 1079 1078 910 887 819 632 482 616 590 590 519 394 255 387 202 178 204 218 308 245 250 297 406 572 606 562 607 616 579 513 326 530 324 261 336 486 390 268 168 159 294 447 88 18 0 1 11 14 579 0 90 559 288 192 455 586 538 1057 1220 1365 1484 1439 1387 1630 1724 1561 1507 1772 1772 1403 1184 1438 1285 1583 1286
17 15 72 42 39 44 4 24 74 171 74 247 192 292 663 786 778 638 720 344 712 827 733 998 836 777 860 558 588 839 831 625 534 528 403 346 286 324 257 263 264 335 230 232 280 265 558 555 717 798 504 566 448 360 374 536 462 608 397 83 286 419 226 173 201 118 23 10 83 3 587 59 0 2335 21 117 314 528 908 678 1097 1311 1512 1678 1992 2026 1206 1354 1549 1822 1298 971 1060 1192 1277 1087 969
86 20 89 64 26 32 38 0 176 81 88 164 298 378 748 822 812 723 468 538 375 636 678 786 947 758 610 552 695 680 745 568 315 298 467 201 232 239 346 324 245 168 230 236 134 328 456 799 806 673 584 818 457 579 487 532 649 652 321 254 119 123 92 103 246 127 119 174 7 23 0 166 0 3 100 281 285 300 410 677 1213 1426 1578 1364 1492 1197 1290 1560 1644 1028 885 1174 1166 854 826 974 1028
65 50 29 41 119 60 33 130 366 370 326 384 354 347 639 462 474 724 560 508 408 623 708 845 853 716 456 591 524 683 454 336 293 369 400 379 436 299 230 97 272 308 482 213 271 313 189 305 662 901 994 693 720 469 494 581 720 582 342 403 264 94 64 153 70 120 57 118 220 0 178 85 15 2 164 178 12 565 393 477 486 692 686 819 1622 1376 1180 1434 1188 992 845 962 1190 1163 883 846 934
32 45 35 24 257 0 5 103 107 203 383 394 514 510 445 506 611 690 524 489 595 656 738 815 662 540 360 491 540 558 628 587 638 505 686 523 334 308 303 272 310 330 279 349 411 448 547 696 438 748 829 842 522 444 520 522 577 766 575 221 172 226 151 119 71 109 78 104 105 284 82 1 54 18 34 338 158 25 453 414 413 560 535 627 806 699 791 1092 785 779 880 870 872 970 1013 781 597
32 32 46 10 2 113 62 1 188 266 278 328 348 264 357 430 288 211 706 681 512 611 826 714 649 424 364 459 422 514 754 676 395 698 515 472 520 412 343 286 329 390 341 506 549 678 711 644 853 872 727 716 463 378 516 391 516 469 834 835 357 423 301 252 279 276 139 18 198 158 9 7 1 14 61 26 56 121 152 288 402 510 408 374 649 791 643 776 1004 742 469 834 666 1297 927 598 710
107 138 453 95 30 35 11 179 215 117 142 107 187 452 454 205 307 610 522 640 680 671 709 551 472 279 336 421 505 698 581 516 632 640 766 511 525 428 362 440 680 592 567 664 536 646 495 604 700 525 566 489 548 652 406 493 508 638 792 711 728 670 531 591 558 168 27 28 54 118 7 74 4 3 42 5 67 212 234 385 503 567 332 318 502 540 495 986 1195 772 640 589 976 1658 1036 1089 978
253 204 27 27 130 143 83 80 21 26 139 316 280 339 231 465 501 440 484 470 574 583 548 663 393 197 254 230 215 533 425 544 532 547 761 785 898 707 316 431 403 505 490 583 526 458 332 311 378 660 763 634 806 758 751 825 859 867 738 669 692 871 840 509 500 277 127 18 6 149 41 14 88 16 67 18 0 142 429 475 217 536 752 458 437 659 541 830 978 883 866 1118 1181 1511 1634 2104 2373
250 159 171 90 66 60 92 87 56 57 296 192 385 334 224 345 289 224 409 484 600 649 335 326 152 166 171 229 231 239 359 388 540 865 730 702 779 830 655 358 265 242 435 320 338 343 544 429 903 790 808 804 880 843 839 756 874 854 767 731 702 666 677 598 534 385 107 122 207 110 79 108 5 5 0 65 183 257 293 697 232 339 73 775 78 366 622 756 1023 705 607 1271 1168 1759 2207 2517 2079
184 97 37 79 197 147 84 114 129 91 185 335 143 149 198 371 467 291 406 361 378 432 201 234 271 95 55 209 292 405 119 301 636 744 544 739 893 945 602 289 535 374 350 386 392 575 847 1137 1214 1396 1345 1282 1319 1033 1015 939 998 874 937 771 790 758 854 580 609 392 179 144 100 238 150 36 105 10 86 205 35 90 23 12 117 172 132 510 86 436 350 526 380 630 844 1319 1418 1801 1854 1812 2093
81 128 62 35 80 52 134 120 122 188 300 299 201 580 224 203 161 201 230 309 326 321 368 330 90 118 89 59 82 81 89 152 289 750 584 534 397 860 709 672 500 441 430 482 618 1048 1194 1286 1360 1398 1567 1523 1371 1394 1342 1332 1037 875 998 934 858 825 908 1071 968 357 172 135 168 381 227 62 141 153 269 83 198 0 4 93 0 54 53 1121 519 225 1118 466 472 450 827 1100 1297 1687 1906 1895 1895
155 158 141 396 199 227 286 225 146 348 232 245 92 166 279 402 108 267 258 233 295 196 188 62 109 77 107 65 32 139 149 72 350 574 607 312 370 632 569 530 717 424 465 761 1042 1037 1063 1118 1221 1443 1486 1613 1581 1468 1412 1389 1725 1227 1143 1053 992 982 811 976 963 771 388 251 155 122 55 164 247 40 0 55 96 73 36 32 58 272 140 929 433 279 954 632 655 532 536 642 1026 1143 1492 1402 1651
76 106 57 128 290 21 39 47 55 104 224 391 113 94 194 250 183 237 244 188 158 187 164 121 108 130 70 111 82 120 157 141 225 288 199 226 319 395 578 629 604 677 694 900 1184 1071 1247 1226 1164 1176 1530 1693 1477 1393 1350 1466 1822 1225 1138 1184 1062 1045 849 827 828 1121 345 184 112 233 202 204 46 49 148 255 26 191 106 37 242 125 280 84 596 596 654 555 729 582 705 539 924 1418 1432 1640 1286
95 92 126 34 38 126 116 49 39 56 102 70 39 35 44 55 20 56 108 115 119 66 193 104 164 145 101 155 128 203 131 90 195 130 143 165 256 551 686 641 661 719 968 1112 1146 1230 1113 943 1016 1190 1477 1369 1334 1556 1587 1825 1912 1570 1432 1044 1241 1044 971 759 893 931 266 284 265 249 271 194 68 195 118 178 171 36 65 70 109 156 538 227 484 572 521 354 420 1076 806 827 982 809 1256 1302 1886
122 17 0 1 18 15 0 54 84 51 116 156 67 158 81 12 10 30 33 131 113 101 65 115 132 205 205 95 170 141 139 164 225 151 165 167 434 555 728 816 863 1032 1146 1140 1141 1152 906 962 1381 1371 1531 1533 1546 1598 1524 1484 1823 1401 1281 1299 1233 1034 1040 954 652 762 408 260 323 246 422 528 152 173 173 130 207 187 180 146 119 354 232 241 687 384 473 462 367 782 1158 1088 883 846 1258 1339 1854
193 134 63 292 5 8 27 12 9 2 25 29 22 37 51 14 47 10 74 51 137 138 90 119 140 33 185 117 243 289 205 230 186 213 190 302 522 735 472 945 1155 1256 1285 1286 1300 1146 1068 1031 1226 1402 1364 1519 1545 1440 1652 1541 1702 1361 1426 1550 1238 1258 1047 1071 969 911 596 359 248 311 392 567 385 228 186 264 547 170 188 231 224 436 220 229 255 228 394 267 575 424 1196 1015 1032 1217 1465 1576 1442
56 20 60 9 1 36 0 28 7 0 38 29 60 12 0 21 10 2 41 79 18 101 35 147 116 166 156 23 190 125 190 269 182 355 426 646 775 542 825 1049 1176 1235 1220 1270 1249 1172 966 1058 1350 1258 1423 1498 1489 1801 1406 1208 1539 1152 1285 1212 1204 1180 1233 1255 1130 874 770 606 408 338 565 771 443 348 295 223 297 208 173 223 290 254 209 177 212 34 76 165 332 653 372 1137 1232 896 974 1213 1184
45 494 130 20 41 1 4 12 0 23 44 0 16 8 2 17 55 10 56 33 112 24 57 165 100 72 180 193 140 204 202 199 107 260 293 360 481 747 856 1034 1259 1264 1365 1370 1357 979 1038 1095 1226 1450 1530 1508 1537 1576 1114 967 954 1155 1103 1395 1264 1305 1282 1176 1149 992 922 744 435 546 496 564 370 423 478 538 453 449 404 280 463 311 369 190 159 77 100 33 181 445 475 473 1021 719 674 804 947
139 41 58 291 5 0 0 0 3 58 221 3 0 0 0 29 39 49 48 101 150 46 106 102 67 156 260 195 77 91 192 168 96 336 322 264 417 811 884 1094 1187 1321 1402 1512 1294 1214 1160 1030 1286 1371 1486 1258 1838 1247 1207 1046 994 976 1205 1301 1247 1182 1313 1237 1398 1278 1012 1021 871 586 606 843 383 353 272 526 518 620 518 484 646 482 331 518 621 284 185 147 198 380 823 418 454 395 129 429 287
55 15 33 134 29 0 0 0 33 24 4 0 0 0 0 32 40 34 61 69 35 59 55 33 139 151 213 246 266 310 269 300 251 502 796 741 779 922 1003 1048 1241 1281 1466 1462 1340 1398 1277 1235 1368 1474 1534 1436 1361 1382 1346 1799 1262 1146 1182 1089 1225 965 1183 1159 1255 1404 1340 1179 1063 1017 1329 838 581 800 532 552 409 370 496 651 642 706 450 329 529 346 265 219 176 239 307 617 365 206 82 69 226
48 13 22 52 172 0 0 0 19 29 32 1 2 23 39 48 34 40 75 33 69 81 58 92 37 152 236 206 209 350 231 338 504 533 413 845 990 644 861 1197 1284 1251 1462 1398 1520 1459 1412 1397 1544 1525 1526 1527 1509 1398 1486 1708 1391 1636 1399 1350 1265 1328 1487 1354 1259 1373 1532 1369 1212 909 945 661 741 278 250 302 176 624 639 498 538 792 727 453 332 252 282 105 140 128 186 223 525 183 102 26 234
65 78 65 107 0 0 2 0 40 20 99 41 33 28 69 50 125 54 23 59 70 93 53 20 34 115 44 85 259 332 91 359 390 541 563 720 811 954 1088 1182 1352 1300 1412 1285 1386 1422 1365 1535 1516 1587 1426 1466 1395 1422 1582 1407 1599 1536 1579 1472 1340 1472 1240 1281 1364 1432 1389 1340 1217 1067 1011 1016 297 530 157 72 64 413 799 569 473 492 710 1083 558 207 273 13 92 115 82 206 271 401 244 127 114
34 5 29 0 0 0 16 12 55 68 73 26 0 6 48 230 63 25 68 17 47 91 76 11 164 109 70 157 241 260 210 539 287 356 470 646 752 869 1038 1208 1458 1324 1330 1198 1304 1336 1091 1455 1561 1605 1579 1497 1565 1607 1636 1672 1655 1543 1554 1601 1405 1403 1481 1524 1392 1386 1376 1176 1512 1336 1085 869 553 411 518 233 106 191 519 817 535 410 570 633 916 399 303 295 99 63 294 318 422 578 251 583 107
38 52 18 12 22 0 32 143 122 36 21 13 30 36 30 72 212 66 30 91 22 30 33 24 22 20 88 143 302 250 192 669 565 610 521 434 642 960 1053 1288 1294 938 1227 1452 1345 1469 1496 1551 1484 1662 1668 1459 1692 1523 1721 1641 1668 1733 1572 1452 1386 1328 1500 1526 1434 1666 1631 1620 1495 1400 1271 945 952 703 345 362 154 409 651 654 751 695 631 657 850 716 550 445 390 266 240 372 349 592 571 171 478
35 57 9 2 82 118 48 6 48 225 63 609 45 29 14 108 31 199 44 45 86 24 123 16 93 23 24 116 185 194 243 490 678 663 588 518 902 854 1149 1198 1023 864 1031 1317 1319 1467 1468 1504 1507 1497 1648 1581 1568 1601 1668 2208 1417 1830 1458 1474 1332 1310 1639 1582 1775 1592 1860 1804 1901 1744 1635 1500 900 1081 650 468 532 452 541 451 628 764 761 952 1051 843 654 666 320 308 415 360 297 486 675 384 200
44 25 26 3 57 32 150 59 44 36 4 44 21 124 46 60 14 145 91 36 47 33 57 46 30 91 65 55 74 157 95 347 368 720 628 837 1001 962 927 1167 1029 945 836 981 1526 1436 1506 1586 1528 1453 1529 1582 1256 1557 1621 1604 1379 1734 1493 1311 1480 1464 1620 1721 1593 1585 1601 1822 2039 1882 1940 1592 1295 1165 1418 947 574 654 966 1100 816 1032 1155 660 690 810 904 695 743 527 786 822 526 422 505 475 544
5 0 14 273 670 59 23 312 80 140 12 119 89 41 496 157 35 22 40 284 82 18 38 47 42 38 77 108 63 28 78 217 263 348 733 912 1006 1067 1114 1131 632 846 984 1006 1006 1328 1562 1568 1510 1414 1563 1502 1632 1588 1722 1468 1815 1509 1454 1502 1539 1584 1448 1780 1498 1581 1897 1982 1856 1843 1913 1858 1668 1674 1274 903 921 894 999 1071 1048 1124 1049 1306 923 1058 1003 711 855 712 826 947 972 653 417 629 569
23 0 6 7 37 979 96 475 164 56 34 82 61 17 257 165 148 42 36 98 67 26 22 71 53 68 24 45 49 15 125 186 94 491 550 732 1036 1195 1254 1167 991 1047 1116 987 874 1161 1255 1458 1477 1483 1459 1590 1595 1665 1812 1598 1648 1740 1595 1707 1358 1354 1731 1688 1483 1685 1873 1740 1901 2001 1943 2000 1950 1759 1574 1290 1464 1078 1210 1369 1264 1137 1539 1291 1304 1216 1259 1138 1003 978 806 835 1077 1010 1183 712 569
0 10 40 38 485 378 442 720 632 92 26 27 84 67 200 105 56 179 160 48 89 61 96 64 46 15 20 76 89 59 171 114 148 460 376 781 923 1298 1262 1019 1251 1045 1255 1005 981 940 1157 1459 1512 1443 1512 1543 1601 1734 1630 1846 1778 1690 1416 1233 951 1060 1078 1535 1795 1962 1703 1745 2075 1922 1956 1987 2176 1950 1750 2422 1598 1486 1196 1209 1290 1121 1796 1801 2018 1558 1337 1056 1204 970 815 538 836 811 987 831 850
0 615 13 16 396 1004 554 1002 563 314 74 90 30 48 372 29 67 52 228 250 124 126 132 64 59 30 42 38 63 106 108 88 281 366 361 765 891 1264 1148 942 1413 1223 1130 1061 854 902 1216 1116 1395 1676 1582 1735 1668 1804 1840 1823 1779 1677 1542 1254 1075 1271 1194 1248 1700 1526 1388 1527 1931 2028 1991 2241 2131 1990 2158 1976 2278 1867 2235 2413 2049 2112 2136 2138 1879 1851 1560 1464 1365 1566 1805 1568 1258 920 1161 870 722
0 0 40 230 645 159 3 187 5 165 8 37 142 29 40 219 97 85 81 162 163 28 56 54 88 46 54 2 44 119 85 167 202 191 538 777 879 1232 1014 978 1289 1385 1112 1113 1110 1065 1083 1282 1336 1648 1535 1766 1725 1748 1878 1870 1776 1583 1726 1624 1571 1717 1149 1099 1100 1483 1272 1873 1879 2039 2157 2216 2111 1909 2030 2214 1881 1875 2320 2632 2820 2989 2733 2835 2505 1863 1764 1645 1807 1614 1708 1309 1408 1278 1448 1331 1121
0 240 100 118 0 80 1 5 18 7 21 33 124 54 404 54 78 262 244 42 19 80 93 69 41 18 52 3 70 129 139 149 39 210 532 687 857 1011 976 1239 1254 1325 1036 1128 1200 1328 1126 1272 1632 1585 1446 1837 1740 1847 1869 1914 1727 1768 1803 1847 2019 1702 2022 1864 1754 1467 1778 1829 1883 1915 2137 2119 1928 1922 2039 2240 2510 1965 2204 2385 2173 2289 2198 2186 2180 2169 2118 1932 1893 1776 1524 1586 1396 1641 1821 1314 1452
3 0 23 88 11 55 18 17 13 24 133 54 299 179 261 95 44 1 5 0 23 89 50 64 33 35 147 30 24 124 98 86 44 251 480 751 1094 1133 1196 1436 1510 1439 1187 1194 1136 1316 1239 1458 1624 1758 1524 1752 1782 1836 1977 1899 1870 2002 1714 1872 1982 2112 2112 1881 1973 2026 1994 1906 1927 1933 2551 2776 3515 1821 2279 2508 1856 2110 2216 2196 2247 2605 2509 2701 2385 2161 1993 1886 2000 1914 1647 1613 1229 1300 1200 1169 1203
0 2 53 42 132 57 12 4 2 115 272 72 4 163 65 81 2 0 1 4 0 0 0 100 62 119 75 43 38 40 102 64 80 356 388 833 1261 1248 1523 1719 1690 1454 1382 1329 997 1244 1385 1269 1472 1624 1662 1785 1773 1817 1874 1854 1852 1932 1987 2001 1987 2080 2190 2256 2215 2076 2488 2344 1641 1950 2387 2912 2807 2910 2490 2079 2210 2157 1818 2037 2137 2483 2806 2059 1945 1764 1818 1470 1772 1503 1702 1166 823 798 932 748 980
16 49 620 131 10 0 204 60 170 405 147 7 2 85 64 0 41 0 0 0 0 0 0 29 45 53 83 64 35 91 128 63 147 346 347 1142 1036 1488 1538 1660 1704 1569 1493 1366 1386 1267 1429 1400 1486 1670 1718 1788 1772 1915 1896 1864 2069 2157 1955 2087 1916 1858 2029 2149 2250 2344 2165 2617 2998 2655 2424 2271 2662 2338 2953 2138 2223 2304 2454 2477 2459 2016 2502 1827 1591 1382 1430 1329 1508 1329 1257 838 939 1158 1019 623 825
0 0 55 1 1 24 29 11 63 71 28 46 19 116 145 0 130 0 0 0 0 0 0 38 43 4 39 44 167 115 124 73 242 412 584 833 1051 1146 1252 1334 1460 1654 1484 1430 1620 1451 1635 1747 1529 1709 1826 1829 1786 1718 1790 1965 2013 1976 2227 2024 2009 1874 1647 1483 2158 1969 2420 2328 2658 3130 2355 2244 2022 2184 2214 2411 2432 2260 2548 2348 2103 2510 1925 1439 1232 1363 1342 1098 1100 1111 971 725 662 959 703 696 512
0 0 0 22 16 37 78 0 4 21 10 0 62 106 345 6 27 10 4 13 2 0 0 0 51 0 36 31 91 123 228 346 341 413 680 650 1111 1154 1403 1367 1292 1650 1684 1430 1304 1664 1803 1882 1729 1731 1767 1842 1785 1752 1897 2025 2057 1906 2054 2037 1859 1835 1967 1688 1731 2135 2270 2352 2322 2478 2038 2656 2183 2208 2087 2748 2342 2108 2430 1893 2319 1427 1322 1126 929 1038 1218 976 744 846 784 717 430 404 291 441 326
0 0 0 0 194 52 4 13 56 4 20 31 378 10 4 3 32 0 16 12 6 12 0 0 4 0 34 44 5 32 566 608 308 485 493 543 709 820 1166 1399 1194 1356 1306 1493 1715 1432 1727 1900 1868 1804 1818 1809 1824 1918 1948 1859 1850 2059 2084 2040 2009 1554 1711 1434 1776 2386 2415 2229 2035 1815 2038 2242 2403 1966 2262 1475 2000 1806 1738 2043 1072 1149 936 708 528 716 831 659 734 315 448 341 175 72 14 171 173
0 0 0 0 116 19 28 151 14 31 7 0 30 0 12 31 10 48 211 45 29 56 18 10 1 0 26 57 278 136 514 588 354 546 623 920 944 910 1294 1434 1109 1056 1155 1459 1509 1531 1616 1712 1653 1635 1936 1847 1949 2016 1873 1928 2090 2018 2171 2188 2153 2052 1939 1670 1858 2292 2410 2456 2257 2337 2235 2474 2096 2268 1844 1405 2082 1533 1545 1401 522 455 511 465 347 408 288 608 314 99 103 81 0 0 0 1 23
2 0 1 0 0 448 414 26 0 74 25 63 24 2 4 24 21 60 526 157 48 74 59 74 0 0 83 33 338 584 686 838 1027 567 421 890 1237 1053 1228 1046 834 902 1107 1365 1444 1476 1528 1550 1232 1600 1699 1562 1631 1892 1684 1874 2052 2124 1987 2344 2204 2088 2134 1929 2163 2336 2449 2318 2308 2265 2424 2277 2173 2138 1805 1587 1716 1575 1094 571 535 374 276 47 0 1 9 1 16 73 0 0 0 0 0 0 0
Wind_Speed
25 27 nan nan nan nan nan nan nan nan nan nan nan nan nan nan nan nan nan nan nan nan nan 40 43 43 46 45 51 49 45 42 36 33 37 38 33 38 40 35 33 34 32 30 30 31 34 36 38 38 38 38 38 36 34 32 29 28 27 27 27 28 28 29 29 30 29 28 27 27 26 25 nan 24 24 26 29 29 30 30 30 34 35 37 37 36 39 39 42 42 38 36 35 33 31 29 27
nan nan nan nan nan nan nan nan nan nan nan nan nan nan nan nan nan 22 nan 41 nan nan 41 40 47 52 52 50 44 47 45 42 42 43 40 36 34 36 36 32 30 33 32 30 30 32 32 35 38 37 37 36 34 32 30 28 26 25 27 27 28 28 28 28 28 27 26 25 23 22 23 24 23 23 22 23 27 29 29 28 31 32 31 34 32 32 35 37 37 37 35 31 32 32 29 29 30
nan nan nan nan nan nan nan nan nan nan nan nan nan nan nan nan 36 nan 47 44 42 39 30 38 45 43 42 44 45 37 34 36 43 42 38 33 36 34 33 34 35 33 31 29 30 30 30 33 35 35 34 31 29 28 26 24 25 26 26 27 nan nan 27 26 26 23 21 20 19 19 21 23 22 21 21 23 28 30 29 31 30 28 28 27 29 30 31 31 33 33 30 29 30 32 29 27 28
nan nan nan nan nan nan nan nan nan nan nan nan nan nan 35 37 nan 42 46 45 38 nan nan 33 39 39 47 43 36 39 38 35 34 35 32 29 31 28 27 28 33 29 29 29 29 29 28 31 33 31 29 27 26 24 24 25 25 26 nan nan nan nan 25 24 21 19 17 17 17 17 18 19 20 20 21 23 29 28 29 30 27 24 22 22 23 26 27 27 28 28 26 25 29 29 23 25 25
nan nan nan nan nan nan nan nan nan nan nan nan nan 39 41 46 45 39 40 nan 38 33 nan 42 39 39 44 39 31 31 34 32 32 30 29 28 27 24 22 24 28 29 29 29 29 28 28 30 28 26 25 24 23 23 24 25 26 26 nan nan nan 24 22 20 17 16 15 15 16 16 16 16 18 19 21 22 25 26 27 25 22 20 18 17 17 19 22 22 22 22 22 21 24 24 22 23 23
nan nan nan nan nan nan nan nan nan nan nan nan nan 42 42 46 45 36 39 30 35 39 53 50 38 32 33 34 31 31 23 27 29 27 27 21 23 22 22 25 27 26 27 28 27 25 24 26 23 22 21 22 22 24 24 25 26 26 26 25 23 nan 19 17 15 15 16 16 16 16 16 17 17 18 21 21 23 21 20 18 15 15 12 12 12 14 15 17 17 17 17 17 20 21 21 20 20
nan nan nan nan nan nan nan nan nan nan nan nan 33 37 34 41 42 40 40 36 39 50 57 48 44 40 36 29 33 30 28 26 25 22 18 21 19 18 21 25 25 26 25 24 22 22 21 21 19 19 20 22 23 24 24 25 25 24 23 22 20 nan 17 16 14 15 17 17 17 17 16 18 18 19 20 20 18 17 16 13 10 9 7 10 10 9 11 13 14 14 14 16 16 16 16 16 17
nan nan nan nan nan nan nan nan nan nan nan nan 41 40 36 36 40 39 39 38 37 44 50 40 37 39 31 24 28 25 27 26 27 26 23 20 17 19 24 23 23 23 nan 20 18 16 17 17 18 19 20 22 23 23 24 24 23 22 21 19 18 nan nan 14 15 16 18 18 17 17 18 17 20 19 17 17 15 15 15 11 8 6 5 6 7 8 10 10 11 12 13 12 12 12 15 16 16
nan nan nan nan nan nan nan nan nan nan nan 43 42 37 33 36 38 38 35 36 32 39 37 28 27 29 26 31 29 23 24 25 23 23 22 19 19 22 20 21 nan nan 18 16 14 12 13 17 19 20 20 21 22 22 22 22 21 20 18 17 nan nan nan 15 16 17 18 17 17 16 16 16 18 16 14 13 12 13 11 7 4 3 2 2 5 7 8 8 10 11 11 11 12 13 15 17 16
nan nan nan nan nan nan nan nan nan nan nan nan 38 29 28 31 32 34 38 27 32 31 31 30 32 33 30 31 25 20 18 16 20 19 18 19 19 17 18 17 16 15 12 11 11 12 13 18 20 20 20 21 21 21 21 20 20 18 16 nan nan nan nan 15 16 16 16 16 15 14 14 13 13 12 10 11 9 9 9 4 1 1 2 5 8 9 10 10 11 12 13 13 12 12 13 13 11
nan nan nan nan nan nan nan nan nan nan nan nan nan 31 30 26 28 30 29 37 45 31 20 19 32 31 28 27 23 16 10 9 14 17 16 16 17 16 15 12 11 8 9 8 10 13 16 16 21 20 20 20 20 20 19 18 18 17 nan nan nan nan nan nan 13 13 13 14 14 13 12 12 9 8 8 8 6 6 8 7 6 4 5 10 10 10 10 10 10 11 11 11 10 9 11 12 14
nan nan nan nan nan nan nan nan nan nan nan 38 26 27 23 23 11 24 22 37 40 30 22 19 23 25 27 25 19 15 15 14 14 15 15 15 16 16 13 8 6 7 7 9 11 12 17 17 18 21 21 21 20 19 17 16 17 16 14 nan nan nan nan nan 11 10 12 13 13 13 12 10 8 5 4 6 5 5 8 9 10 10 12 13 13 12 11 10 10 9 8 8 7 10 10 11 11
nan nan nan nan nan nan nan nan nan nan nan 28 21 18 14 17 nan 20 33 38 31 25 24 23 22 17 21 20 14 15 14 13 13 13 12 12 13 13 9 5 3 4 6 9 11 13 18 16 17 18 21 23 20 18 15 14 15 15 nan nan nan nan nan nan 8 10 11 12 13 14 12 10 5 3 3 6 5 6 9 9 11 14 16 15 15 15 12 12 10 10 10 9 9 10 9 11 12
nan nan nan nan nan nan nan nan nan nan 25 29 22 17 16 17 16 30 28 28 25 26 22 23 21 21 21 16 12 11 13 11 12 10 9 10 12 9 5 1 3 6 7 8 10 12 15 16 14 17 21 19 19 17 15 15 13 14 12 nan nan nan nan nan nan 10 11 14 13 13 14 9 5 6 7 7 7 8 8 9 10 13 15 15 15 13 12 10 9 12 12 9 10 11 11 11 11
nan nan nan nan nan nan nan nan nan nan nan 21 21 17 22 18 19 29 31 28 22 22 19 20 17 12 10 9 8 9 10 8 6 6 nan nan nan 4 1 7 6 4 6 9 10 12 13 14 16 14 14 13 14 14 15 14 15 13 13 11 nan nan nan nan nan nan nan nan 13 13 14 9 10 11 12 11 10 10 9 10 11 13 14 15 14 12 11 11 11 14 12 11 11 10 8 12 16
nan nan nan nan nan nan nan nan nan nan nan nan 14 12 nan 16 26 28 19 19 14 20 22 18 18 12 13 10 7 8 6 5 4 nan nan nan nan nan 4 4 4 3 6 8 9 11 11 12 12 12 12 13 12 9 8 9 16 15 15 16 nan nan nan nan nan nan nan nan 13 12 13 15 13 14 14 15 13 15 11 13 13 14 15 16 16 14 13 13 12 11 9 11 12 5 4 12 16
nan nan nan nan nan nan nan nan nan nan 20 nan nan nan nan 22 25 24 15 19 20 18 17 18 14 8 9 7 10 10 4 2 5 nan nan nan 6 6 3 2 1 4 5 7 9 9 9 10 11 13 12 11 10 8 8 6 9 18 16 22 15 nan nan nan nan nan nan nan nan nan 18 18 16 16 16 15 14 12 14 13 15 14 16 17 17 15 15 14 12 11 9 9 8 7 9 15 13
nan nan 6 nan nan nan nan nan nan nan nan nan nan 27 21 nan 22 6 8 14 19 14 7 10 12 11 10 10 13 8 2 4 2 5 6 5 5 3 2 3 7 6 6 7 7 10 10 9 11 12 13 11 11 9 9 8 9 13 19 16 15 nan 11 8 8 nan nan 13 nan 15 17 17 17 15 16 15 13 14 16 15 16 17 17 17 17 16 14 13 12 12 11 9 8 8 10 10 10
nan 6 nan nan 5 nan nan nan nan nan 16 18 24 8 9 18 19 9 10 10 8 11 6 6 11 9 10 7 7 7 6 10 8 8 7 5 4 3 1 0 2 4 7 8 8 8 9 11 11 11 11 13 11 8 8 8 7 7 10 11 9 9 8 7 nan nan nan nan nan nan 18 nan nan 16 17 16 15 17 16 17 19 19 16 17 18 19 16 11 10 11 9 7 6 7 6 7 9
nan nan nan nan nan nan nan nan nan 19 nan 26 17 7 11 15 16 12 14 14 9 8 3 4 6 8 4 2 8 12 11 10 10 10 6 3 4 2 2 3 6 7 5 7 8 8 9 11 12 12 12 11 11 8 4 4 5 8 6 nan 8 8 8 10 10 11 nan nan nan nan 18 nan nan 18 nan 19 12 14 15 21 21 20 20 21 22 19 10 7 7 5 7 9 7 7 8 6 7
nan nan nan nan nan nan nan nan 20 nan nan 20 14 6 9 10 10 12 14 13 8 4 4 3 2 2 3 8 12 11 13 10 8 7 5 2 1 0 2 2 1 4 7 6 6 7 10 11 12 11 11 11 11 7 7 5 7 7 5 6 7 7 nan 10 11 8 9 12 nan nan nan 19 nan nan 17 17 18 16 16 17 18 18 17 15 16 13 13 8 8 10 9 10 9 10 7 6 8
nan nan nan nan 4 nan nan 6 10 18 9 8 8 4 6 6 9 9 4 4 3 4 4 7 7 8 9 10 11 12 10 9 7 5 4 0 0 2 1 nan 4 3 1 3 4 7 8 11 12 13 13 12 12 10 7 6 6 7 4 6 7 nan nan 9 nan 8 nan 11 14 nan 20 nan nan nan 15 17 nan 18 16 16 17 17 16 15 14 14 16 13 11 11 11 9 12 14 9 10 12
nan nan nan nan 13 nan nan 7 9 11 12 8 3 4 3 6 5 4 6 6 6 6 6 11 13 13 12 12 10 11 8 8 8 6 2 3 2 3 3 3 6 6 3 2 2 6 7 8 10 13 16 16 14 11 9 7 7 8 6 6 6 7 8 10 nan 8 nan 10 15 17 nan nan nan nan nan 19 18 nan 18 16 18 18 18 16 14 10 17 15 13 13 12 15 16 12 10 10 9
nan nan nan nan nan 22 nan nan 7 2 6 4 5 3 4 2 4 7 5 6 7 10 12 13 16 15 12 10 10 8 7 8 9 4 3 2 1 0 1 3 3 3 3 3 5 7 10 11 12 14 14 15 17 13 8 6 8 8 8 8 6 8 7 7 9 7 7 nan 14 15 nan nan nan nan nan nan nan 19 21 18 22 19 20 18 18 18 16 21 14 10 10 16 16 15 6 10 12
22 24 38 nan nan nan nan 7 5 5 6 8 8 5 4 6 8 12 12 12 12 14 14 14 15 14 10 8 6 4 9 8 8 3 5 3 3 2 1 3 4 1 1 3 6 9 11 13 11 10 11 13 15 13 10 8 9 9 8 7 8 7 7 7 7 6 nan nan nan 13 nan nan nan nan nan nan nan 18 20 19 22 22 21 20 21 23 21 23 17 16 18 24 24 19 17 23 22
27 36 nan nan 15 13 nan nan nan nan 12 15 16 14 14 15 15 15 16 16 15 15 14 16 16 13 8 9 5 9 7 6 6 7 6 4 2 3 1 1 2 2 2 5 5 9 11 10 9 9 11 12 15 14 15 13 10 9 8 8 11 10 8 7 8 7 8 nan nan 12 nan nan nan nan nan nan nan 20 19 18 20 23 21 18 22 23 22 22 21 20 23 26 22 23 22 21 21
26 27 19 nan nan nan nan nan nan nan 17 20 21 20 21 23 23 17 16 15 14 15 15 16 16 11 10 11 10 8 8 8 8 7 6 4 4 3 4 5 5 2 6 4 5 9 11 10 9 10 11 12 14 14 16 16 14 11 10 11 12 11 11 11 9 7 7 10 11 10 nan 13 nan nan nan nan 18 21 19 18 19 17 nan 20 nan 23 19 24 21 22 21 19 21 25 23 23 21
29 nan nan nan 19 16 nan 16 17 nan 19 21 21 22 22 22 22 13 13 13 14 14 15 15 19 nan nan 13 11 8 9 7 4 6 4 5 6 6 7 5 4 4 1 2 3 7 9 10 11 10 11 12 12 13 15 16 17 14 12 12 12 14 15 16 12 8 8 10 13 12 12 nan 15 nan nan 20 nan nan nan nan 16 17 19 21 nan 20 19 22 21 22 19 16 19 22 22 21 21
nan 28 nan nan nan nan 18 20 18 23 15 16 16 21 23 20 13 15 14 15 17 17 19 21 nan 15 nan nan nan nan nan 7 5 2 6 6 7 8 7 4 5 4 4 1 2 7 10 12 11 11 10 10 12 11 12 13 16 16 15 14 13 16 19 17 15 10 10 10 13 14 13 nan 12 15 18 nan 16 nan nan nan nan nan nan 19 17 18 19 18 19 20 19 15 16 20 20 20 19
19 29 18 20 23 21 28 29 23 27 16 16 nan 16 19 21 14 18 18 18 19 18 22 nan 15 nan 14 nan nan 9 7 nan 5 4 8 9 6 8 5 5 8 6 4 3 4 7 9 11 12 12 11 9 9 10 12 12 15 16 16 16 16 16 17 19 19 13 12 12 12 12 nan 14 14 nan nan nan nan nan nan nan nan 17 18 18 16 19 20 17 19 20 20 16 16 21 19 19 19
nan 28 nan 20 18 nan nan nan nan 22 21 26 25 nan 23 20 20 23 22 23 23 22 23 19 18 18 nan 11 nan 11 9 4 6 8 10 10 7 7 5 6 10 3 3 4 4 5 8 10 12 10 10 10 9 9 8 9 14 13 14 16 16 16 17 19 21 17 15 15 14 15 15 15 nan nan 12 15 nan 16 14 nan 20 19 19 nan 18 20 18 19 21 21 22 20 19 21 21 21 20
nan nan 21 nan nan 15 17 nan nan nan 21 nan nan nan nan nan nan nan 24 23 24 nan 20 19 19 18 15 16 12 11 9 nan 9 8 11 9 5 6 8 7 7 3 3 4 4 7 8 11 10 10 9 9 8 8 8 8 11 13 13 13 14 14 16 18 22 18 16 17 16 16 15 14 nan 14 14 16 17 nan nan nan 16 20 20 17 17 20 18 20 23 22 22 23 19 20 24 23 24
22 nan nan nan nan nan nan nan nan nan 20 23 nan 15 nan nan nan nan nan 23 21 19 nan 18 18 18 16 nan 15 14 13 12 8 9 11 4 5 8 7 7 6 4 5 5 6 7 7 8 8 9 9 7 7 7 8 8 10 10 11 12 13 13 14 17 19 18 16 16 18 17 16 15 13 14 15 15 15 15 16 18 16 18 18 18 18 18 18 18 20 21 20 22 20 22 25 22 23
19 24 nan 23 nan nan nan nan nan nan nan nan nan nan nan nan nan nan nan nan 19 18 nan 17 15 nan 14 14 14 14 13 12 10 8 3 5 7 8 7 6 5 5 5 5 7 7 9 10 8 8 8 7 7 8 8 9 10 11 12 12 12 12 12 15 18 17 15 15 15 16 16 14 15 13 15 16 16 15 15 16 16 16 15 15 15 16 16 16 18 19 19 19 19 20 19 19 21
nan nan nan nan nan nan nan nan nan nan nan nan nan nan nan nan nan nan nan nan nan 15 nan 15 14 14 13 nan 12 13 10 8 7 4 4 6 6 7 5 5 6 6 6 6 6 6 8 8 7 8 7 8 8 10 10 10 12 12 13 13 13 13 14 14 16 15 14 15 13 13 15 14 13 13 12 13 14 13 13 14 14 12 13 13 14 nan nan 15 16 17 16 17 17 16 17 18 19
nan 13 18 nan nan nan nan nan nan nan nan nan nan nan nan nan nan nan nan nan 17 nan nan 13 nan nan 11 11 11 10 9 7 5 5 3 6 9 6 5 6 6 6 6 5 6 7 7 7 7 8 8 9 10 12 14 12 13 12 14 15 14 14 14 15 15 15 16 15 14 14 14 13 11 11 13 13 12 12 12 12 13 13 13 13 13 nan nan nan 15 17 16 15 14 14 15 16 17
4 nan nan 11 nan nan nan nan nan nan 8 nan nan nan nan nan nan nan nan 15 13 nan 13 12 nan 10 9 9 nan nan 5 5 nan 3 4 6 7 5 5 5 6 5 5 5 6 6 7 7 6 7 8 11 14 12 12 13 13 15 15 16 17 17 16 15 16 16 16 17 16 16 15 13 11 11 12 13 13 13 13 14 15 14 14 15 16 15 15 15 16 16 18 17 14 14 15 16 16
nan nan nan 14 nan nan nan nan nan nan nan nan nan nan nan nan nan nan nan nan nan nan nan nan 11 10 9 10 9 9 5 6 6 1 2 1 5 5 5 5 5 6 5 6 6 5 6 5 6 6 9 11 12 11 12 15 14 15 15 14 15 15 16 16 15 16 15 16 17 18 17 14 13 14 13 14 14 14 14 16 16 16 15 15 16 16 16 16 16 16 15 17 17 14 nan nan 16
nan nan nan nan 10 nan nan nan nan nan nan nan nan nan nan nan nan nan nan nan nan nan nan nan nan 10 10 9 8 7 7 5 5 4 3 3 3 5 5 5 5 5 5 6 5 6 6 5 6 8 10 11 12 12 13 12 13 14 13 14 13 13 14 14 14 14 15 15 15 15 16 14 15 13 12 14 14 14 14 13 15 16 16 15 14 15 16 14 15 14 14 14 17 16 16 nan 16
nan nan nan 4 nan nan nan nan nan nan nan nan nan nan nan nan 10 nan nan nan nan nan nan nan nan 10 nan nan 9 7 nan 4 6 5 4 4 5 4 3 4 4 4 6 5 6 6 5 6 7 8 10 10 11 11 10 11 10 11 10 10 11 11 12 13 13 13 13 12 12 13 14 13 14 13 9 nan nan 14 14 13 13 14 15 15 12 12 14 nan nan 13 nan 13 15 15 16 15 15
nan nan nan nan nan nan nan nan nan nan nan nan nan nan nan 3 nan nan nan nan nan nan nan nan 10 10 nan 8 9 7 7 7 7 6 5 5 5 5 4 3 3 4 6 5 6 6 7 7 7 8 9 10 9 9 9 9 10 9 10 10 10 10 10 10 11 11 10 11 11 11 11 11 12 10 10 10 10 13 14 13 13 12 12 14 14 12 12 13 nan nan 13 13 13 16 14 17 15
nan nan nan nan nan nan nan 13 8 nan nan nan nan nan nan nan 5 nan nan nan nan nan nan nan nan nan nan 8 8 7 8 7 6 6 7 6 5 4 5 4 4 5 6 5 5 7 5 7 7 7 9 9 8 8 8 10 11 10 11 10 10 10 9 10 10 10 9 10 9 9 9 10 10 10 11 11 10 11 12 13 13 11 11 12 11 12 12 12 12 12 12 14 14 15 15 14 16
nan nan nan nan nan 4 nan nan nan 5 nan 3 nan nan nan 1 nan 5 nan nan nan nan 13 nan nan nan nan 10 10 8 8 5 5 4 6 5 4 5 4 4 5 5 5 4 5 7 5 6 6 7 7 8 7 8 8 9 10 12 11 10 10 9 8 9 10 10 10 10 9 9 9 10 10 10 11 12 11 11 11 12 12 10 9 11 11 11 10 11 11 12 14 14 15 15 15 15 14
nan nan nan nan nan nan 6 nan nan nan nan nan nan 8 nan nan nan 7 nan nan nan nan nan nan nan nan nan nan nan 10 nan 5 5 5 5 4 5 5 4 4 5 3 4 4 5 7 5 5 6 6 7 8 8 7 9 10 9 10 10 9 10 9 10 10 10 10 11 10 10 10 10 9 9 10 10 10 11 10 12 12 10 10 10 10 9 10 11 11 13 14 15 16 16 15 15 14 14
nan nan nan 7 11 nan nan 10 nan 6 nan 4 nan nan 2 3 nan nan nan 7 nan nan nan nan nan nan nan 10 nan nan nan 9 6 5 3 3 4 5 3 4 5 2 3 3 5 5 5 5 5 5 6 7 7 6 9 10 9 11 11 10 10 11 11 11 11 10 10 11 10 10 10 10 9 10 10 12 12 13 13 13 12 11 11 12 12 12 12 14 15 16 19 17 18 17 18 17 19
nan nan nan nan nan 21 nan 10 3 nan nan nan nan nan 10 9 6 nan nan nan nan nan nan nan nan nan nan nan nan nan 12 9 nan 6 3 3 3 4 3 3 4 1 2 2 3 3 4 4 3 4 5 6 5 6 9 8 9 11 10 12 10 9 10 9 9 12 13 14 13 14 13 12 11 11 13 12 13 13 15 15 16 15 13 15 15 16 17 17 19 19 20 20 21 19 21 22 22
nan nan nan nan 12 14 13 9 9 nan nan nan nan nan 10 14 nan 11 14 nan nan nan nan nan nan nan nan nan nan nan 15 13 11 10 6 3 1 4 3 2 2 2 3 2 2 2 2 3 2 4 4 5 4 5 7 6 9 10 9 11 10 9 9 10 11 12 14 14 14 15 15 13 12 11 11 13 12 12 14 15 16 16 16 18 18 19 19 21 21 20 21 23 23 22 22 22 22
nan 6 nan nan 17 17 9 3 4 4 nan nan nan nan 16 nan nan nan 16 18 21 18 15 nan nan nan nan nan nan 16 16 nan 13 12 12 7 2 4 2 2 2 3 3 2 2 2 1 1 1 3 4 4 3 4 6 6 8 10 8 10 9 9 8 10 10 11 12 12 14 14 15 14 13 12 11 11 12 13 12 15 16 17 19 19 20 21 21 21 20 21 22 23 22 23 23 23 22
nan nan nan 17 10 10 nan 3 nan 3 nan nan 13 nan nan 10 nan nan nan 25 25 nan nan nan nan nan nan nan nan 16 nan 14 12 10 11 8 5 4 3 1 5 4 2 3 3 3 2 1 2 2 3 2 3 4 5 6 7 7 7 8 6 9 9 7 8 8 8 10 13 13 15 15 14 13 13 12 13 14 14 16 18 19 19 20 20 19 18 17 18 19 19 19 19 17 17 17 18
nan 17 16 10 nan nan nan nan nan nan nan nan 16 nan 12 nan nan 26 27 nan nan nan nan nan nan nan nan nan nan 15 15 15 nan 12 13 10 7 4 4 2 5 4 2 3 4 5 4 2 1 2 2 2 3 4 5 5 6 6 6 7 5 6 8 5 5 5 6 7 9 10 12 14 14 14 12 12 12 12 15 16 16 17 16 16 14 14 14 15 14 14 15 16 16 19 20 21 21
nan nan nan nan nan nan nan nan nan nan 8 nan 17 10 5 nan nan nan nan nan nan nan nan nan nan nan 14 nan nan 16 nan nan nan 14 12 11 8 6 3 5 5 4 3 3 6 6 5 4 3 2 3 3 3 5 5 5 5 5 5 4 5 5 3 5 2 1 3 4 5 6 7 12 12 11 9 9 9 11 11 9 13 11 12 12 11 10 11 9 11 12 14 14 14 16 17 18 18
nan nan nan nan 14 nan nan nan nan 8 5 nan nan 9 nan nan nan nan nan nan nan nan nan 16 nan 14 nan nan nan nan 16 nan nan 15 14 12 10 7 5 6 5 5 4 5 7 6 7 6 4 4 5 4 5 5 5 5 5 5 5 5 4 4 3 1 2 2 1 2 3 5 7 9 9 8 7 5 3 4 4 5 6 6 8 5 4 5 7 9 10 11 14 14 14 16 15 16 16
nan nan 11 6 nan nan 9 nan 8 9 8 nan nan nan nan nan nan nan nan nan nan nan nan nan nan nan nan nan nan nan 16 nan 15 15 13 12 11 8 7 7 6 6 5 5 7 7 8 7 6 6 6 6 6 6 7 7 6 7 5 6 6 4 5 4 4 5 4 4 5 3 5 7 6 6 8 5 5 4 5 6 6 5 6 8 7 7 9 10 11 11 12 13 14 16 17 16 14
nan nan nan nan nan nan nan nan nan nan nan nan nan 7 3 nan 3 nan nan nan nan nan nan nan nan nan nan nan 13 15 16 nan 18 15 14 14 11 11 9 7 8 6 7 6 7 8 9 8 9 8 8 9 8 8 8 8 8 7 7 7 6 7 5 8 7 7 8 7 7 6 8 8 8 10 9 8 8 6 6 6 8 7 9 9 8 8 9 9 9 9 10 12 13 16 17 17 14
nan nan nan nan nan nan nan nan nan nan nan nan nan 5 7 nan nan nan nan nan nan nan nan nan nan nan nan nan nan 13 14 12 15 16 15 12 11 10 8 9 8 8 7 8 8 9 10 9 11 9 10 10 10 10 10 10 10 8 9 9 8 9 6 6 8 9 9 9 9 8 8 8 8 9 9 10 10 9 9 6 7 9 9 10 9 7 9 9 7 8 9 12 13 16 16 17 16
nan nan nan nan 17 nan nan nan nan nan nan nan 10 nan nan nan nan nan nan nan nan nan nan nan nan nan nan nan nan nan 11 12 14 16 14 13 13 12 10 10 10 10 9 9 10 10 12 10 13 12 12 13 12 13 13 12 11 10 11 11 9 10 8 9 10 9 10 9 10 10 8 9 9 6 9 8 10 10 7 10 10 13 13 12 10 7 7 9 9 9 9 11 12 nan nan 16 17
nan nan nan nan 14 nan nan 12 nan nan nan nan nan nan nan nan nan nan 13 nan nan nan nan nan nan nan nan nan 10 11 11 12 12 13 12 12 11 10 9 8 10 12 10 11 11 11 14 12 14 14 14 15 14 15 16 14 13 12 12 13 11 10 8 8 12 11 10 9 10 9 9 10 9 8 9 7 9 9 12 11 13 11 14 13 10 8 5 8 10 nan 9 nan nan nan nan nan nan
nan nan nan nan nan 20 16 nan nan nan nan nan nan nan nan nan nan nan 4 5 nan nan nan nan nan nan nan nan 9 9 10 9 7 12 11 12 11 11 10 9 9 11 11 12 13 11 14 14 15 16 17 16 17 17 17 16 15 13 13 14 14 11 10 9 10 12 9 9 11 9 9 9 10 11 11 10 12 12 11 10 12 16 14 nan nan nan nan nan nan nan nan nan nan nan nan nan nan
Wind_Direction
288 289 nan nan nan nan nan nan nan nan nan nan nan nan nan nan nan nan nan nan nan nan nan 257 249 251 256 262 260 257 247 252 250 258 263 267 267 270 271 275 276 278 281 284 285 285 282 279 278 278 281 282 281 282 281 281 282 279 278 278 276 277 276 279 281 284 286 286 285 286 285 281 nan 282 281 282 282 281 283 286 281 273 266 262 260 253 250 244 242 242 243 239 239 239 240 237 236
nan nan nan nan nan nan nan nan nan nan nan nan nan nan nan nan nan 218 nan 235 nan nan 256 256 255 255 262 258 259 258 248 248 256 264 263 265 269 265 271 279 283 281 282 285 284 283 281 278 278 281 282 282 282 282 282 282 280 280 278 278 279 279 280 281 284 286 287 287 286 285 284 285 284 285 286 285 287 289 292 291 287 281 269 263 260 253 246 248 245 244 242 240 245 242 235 231 230
nan nan nan nan nan nan nan nan nan nan nan nan nan nan nan nan 228 nan 234 252 247 254 254 256 252 244 259 254 251 252 263 263 265 265 264 273 268 262 267 272 277 281 283 286 283 281 281 281 282 282 282 283 282 282 280 280 280 280 280 280 nan nan 281 281 283 285 286 286 286 285 285 287 288 289 288 289 291 295 293 293 290 283 270 262 253 251 246 246 250 248 243 240 244 246 239 233 231
nan nan nan nan nan nan nan nan nan nan nan nan nan nan 220 219 nan 233 239 245 261 nan nan 257 254 246 255 253 262 262 262 261 256 261 262 261 261 271 272 276 278 282 285 281 281 283 285 287 283 284 284 282 280 279 280 280 280 283 nan nan nan nan 280 282 281 284 287 287 287 288 286 289 293 293 292 295 296 297 295 294 290 284 268 258 250 247 243 244 251 250 244 245 244 245 243 243 234
nan nan nan nan nan nan nan nan nan nan nan nan nan 243 234 235 234 238 239 nan 251 253 nan 257 260 253 258 255 255 257 259 264 259 261 270 268 271 279 286 282 283 283 283 283 285 287 288 286 284 284 282 278 278 279 281 282 285 284 nan nan nan 280 282 280 277 281 288 285 287 293 292 290 294 296 298 302 303 302 304 302 298 284 266 255 251 247 242 241 244 246 249 251 252 249 246 245 246
nan nan nan nan nan nan nan nan nan nan nan nan nan 239 233 237 247 247 251 237 249 250 256 258 269 263 255 252 247 256 253 258 265 258 264 270 278 279 280 280 282 284 284 286 286 286 287 282 282 280 277 279 281 283 285 286 288 285 282 280 280 nan 279 277 270 279 289 285 290 297 295 294 294 298 305 306 310 316 314 310 301 285 263 249 249 247 236 236 238 235 240 245 246 245 241 240 237
nan nan nan nan nan nan nan nan nan nan nan nan 247 251 243 243 243 245 247 260 254 253 247 257 265 266 260 259 256 250 250 259 260 266 269 281 286 288 283 273 275 279 280 282 285 285 284 282 281 277 279 284 286 288 289 290 286 284 281 282 280 nan 279 271 271 282 291 293 293 298 296 296 298 301 308 309 317 329 326 322 308 279 263 242 243 243 232 234 229 223 222 230 230 234 238 231 212
nan nan nan nan nan nan nan nan nan nan nan nan 256 260 259 251 247 245 241 252 251 249 255 251 248 258 256 256 258 250 254 259 265 269 280 281 291 287 277 281 282 283 nan 283 284 287 287 284 282 284 289 291 292 292 291 289 287 283 283 280 277 nan nan 274 276 287 295 296 299 298 297 296 299 301 308 311 320 329 336 333 327 289 267 247 235 213 215 212 208 212 207 205 204 207 212 213 201
nan nan nan nan nan nan nan nan nan nan nan 267 261 266 266 259 258 250 245 244 247 245 245 257 260 255 262 259 256 259 255 262 268 274 282 292 291 284 284 288 nan nan 286 288 290 296 294 295 294 296 298 296 297 293 293 292 288 285 280 279 nan nan nan 278 280 290 294 297 300 301 300 297 299 302 305 316 323 331 336 334 336 309 253 221 181 179 186 180 187 188 181 184 188 187 194 198 186
nan nan nan nan nan nan nan nan nan nan nan nan 265 279 270 260 260 263 248 253 254 251 248 252 260 267 269 264 258 249 254 254 276 280 278 278 280 283 283 286 290 288 287 296 306 299 306 306 306 305 303 302 298 298 296 295 289 286 288 nan nan nan nan 278 284 289 295 299 305 308 305 302 297 298 311 330 334 353 1 10 51 18 144 140 137 150 155 147 152 160 155 159 170 182 186 187 179
nan nan nan nan nan nan nan nan nan nan nan nan nan 265 266 257 254 259 254 249 258 267 269 262 266 270 261 259 258 270 268 277 273 272 267 269 270 274 276 263 260 289 302 297 298 306 314 315 312 311 309 306 303 301 300 298 297 301 nan nan nan nan nan nan 288 294 300 306 312 318 323 312 304 303 327 349 5 25 38 59 85 81 112 127 127 130 134 133 144 160 148 144 160 173 187 175 166
nan nan nan nan nan nan nan nan nan nan nan 240 242 235 255 261 261 268 252 253 257 264 260 242 258 263 260 264 263 284 302 293 273 264 267 267 273 272 272 265 249 230 252 290 313 315 316 326 322 317 312 310 310 306 306 309 313 313 311 nan nan nan nan nan 303 311 313 317 323 333 333 327 316 311 342 15 51 53 47 59 79 90 109 117 121 115 107 112 125 133 138 138 150 167 182 152 142
nan nan nan nan nan nan nan nan nan nan nan 259 267 249 219 218 nan 254 245 245 246 251 239 232 259 243 252 257 268 283 290 277 272 268 279 278 275 273 260 255 237 257 272 286 300 310 321 329 326 324 323 318 317 313 317 325 326 319 nan nan nan nan nan nan 331 330 333 329 337 342 345 339 339 356 13 56 68 65 59 65 72 89 101 111 110 106 105 108 118 130 129 125 138 162 153 130 140
nan nan nan nan nan nan nan nan nan nan 260 269 276 286 229 213 222 243 258 253 238 237 235 234 239 247 255 258 263 276 283 283 280 289 284 285 272 268 254 240 270 274 291 300 307 313 320 329 329 330 340 337 335 329 332 336 331 333 339 nan nan nan nan nan nan 351 353 354 356 357 356 2 28 50 45 51 65 71 82 67 77 84 93 95 95 103 105 110 115 104 101 125 146 131 129 143 147
nan nan nan nan nan nan nan nan nan nan nan 275 278 253 250 226 220 245 256 259 239 225 226 229 230 245 237 243 253 263 290 305 303 309 nan nan nan 258 74 214 238 289 298 309 324 328 330 336 334 333 336 341 340 345 348 347 342 349 352 11 nan nan nan nan nan nan nan nan 14 22 11 34 54 59 50 56 63 69 82 86 89 89 93 93 92 93 94 93 79 85 94 119 114 96 143 161 107
nan nan nan nan nan nan nan nan nan nan nan nan 274 258 nan 245 233 246 244 251 255 227 219 235 228 249 251 231 263 264 283 331 358 nan nan nan nan nan 212 255 266 284 306 317 323 331 333 329 336 337 343 345 343 344 346 352 355 357 8 19 nan nan nan nan nan nan nan nan 19 31 35 36 58 62 51 62 66 64 66 76 84 89 92 94 94 93 88 83 79 81 91 92 94 117 171 104 92
nan nan nan nan nan nan nan nan nan nan 277 nan nan nan nan 234 241 253 241 230 244 230 219 213 230 234 238 246 255 245 272 11 21 nan nan nan 166 161 172 211 255 333 330 328 330 335 328 334 336 345 350 349 347 355 347 9 355 12 12 34 16 nan nan nan nan nan nan nan nan nan 44 49 48 51 52 63 57 64 62 74 77 80 85 87 91 98 99 102 103 101 99 106 129 149 132 109 134
nan nan 218 nan nan nan nan nan nan nan nan nan nan 228 252 nan 249 260 240 229 230 231 217 224 239 215 215 239 232 223 182 95 114 106 155 169 136 123 113 30 349 353 348 329 347 340 345 350 342 350 355 359 1 10 345 15 31 18 26 19 35 nan 8 3 38 nan nan 41 nan 69 62 63 54 49 59 70 61 64 56 66 75 74 79 85 90 90 95 102 112 120 127 140 136 124 129 120 115
nan 242 nan nan 182 nan nan nan nan nan 267 262 252 242 292 275 300 319 250 293 298 244 189 217 255 236 228 242 215 160 143 122 127 136 153 163 125 82 26 346 320 341 345 344 354 345 358 1 356 354 360 3 20 26 339 17 36 64 6 25 32 21 27 11 nan nan nan nan nan nan 62 nan nan 47 56 61 64 56 65 69 74 79 79 85 88 88 84 95 106 114 132 132 120 115 95 105 108
nan nan nan nan nan nan nan nan nan 281 nan 271 268 102 269 260 272 293 269 289 313 271 203 192 254 264 252 204 135 142 134 123 135 144 152 107 85 183 236 350 6 2 329 341 356 354 5 6 3 8 9 22 17 18 4 9 51 67 43 nan 53 35 27 35 32 40 nan nan nan nan 69 nan nan 62 nan 63 60 71 53 69 68 79 78 73 76 77 81 91 94 90 112 98 82 84 68 78 105
nan nan nan nan nan nan nan nan 298 nan nan 282 327 10 260 256 260 282 294 271 260 255 150 124 232 208 145 111 121 127 119 124 131 133 99 92 131 45 80 135 300 336 5 353 356 7 4 10 13 19 15 30 42 27 24 19 52 53 53 44 47 42 nan 51 48 40 59 71 nan nan nan 74 nan nan 55 72 66 58 60 60 62 59 64 71 62 73 64 57 60 56 74 87 83 89 86 90 83
nan nan nan nan 139 nan nan 352 285 298 298 310 334 273 256 291 261 259 286 216 232 227 114 129 134 132 112 107 113 121 123 122 122 98 78 108 13 228 256 nan 44 42 334 353 1 13 1 4 15 23 23 27 43 39 44 28 50 54 44 67 68 nan nan 69 nan 45 nan 78 73 nan 82 nan nan nan 69 62 nan 63 63 71 75 78 72 77 69 69 67 47 51 55 68 85 86 85 71 60 62
nan nan nan nan 15 nan nan 334 328 343 333 16 334 306 300 238 238 202 206 210 187 168 105 109 117 115 117 118 124 125 132 129 100 71 34 2 0 14 9 26 26 26 341 11 52 34 31 29 17 30 26 30 35 42 31 38 60 69 29 54 67 59 47 59 nan 61 nan 74 84 80 nan nan nan nan nan 75 69 nan 69 72 78 79 81 82 81 66 78 65 49 46 51 61 62 72 67 60 72
nan nan nan nan nan 47 nan nan 290 264 14 9 350 327 215 172 197 132 164 131 121 114 110 111 112 111 119 122 123 128 126 92 77 65 51 10 17 87 137 107 196 238 13 23 28 37 32 22 23 28 40 41 47 36 34 39 71 74 68 42 46 63 52 67 73 80 66 nan 87 86 nan nan nan nan nan nan nan 76 80 71 75 73 77 78 76 72 64 76 53 74 105 95 97 91 72 85 72
73 66 60 nan nan nan nan 18 23 38 39 51 63 94 109 111 119 111 116 111 104 102 105 104 96 100 102 97 93 90 74 65 72 74 71 61 38 34 136 178 172 160 41 27 42 37 31 27 22 31 38 44 51 51 44 51 59 71 81 82 72 69 66 57 71 76 nan nan nan 86 nan nan nan nan nan nan nan 78 80 79 86 76 71 72 78 77 74 76 62 51 56 62 69 73 43 43 43
54 65 nan nan 52 51 nan nan nan nan 74 70 79 85 79 87 81 110 109 102 95 86 82 76 74 66 62 72 28 37 49 62 74 71 77 86 68 51 325 29 43 34 47 35 46 51 34 20 17 27 42 46 51 50 50 54 65 68 79 82 85 84 69 63 76 60 68 nan nan 92 nan nan nan nan nan nan nan 86 73 73 80 83 78 71 76 75 77 77 74 61 55 65 69 75 72 69 66
72 71 61 nan nan nan nan nan nan nan 90 89 91 84 79 78 86 101 96 91 79 67 60 59 62 52 21 32 27 20 26 45 54 81 82 84 79 98 73 39 30 356 30 21 33 39 41 20 29 26 31 40 50 48 52 51 54 66 67 69 78 88 91 78 65 74 78 81 76 76 nan 74 nan nan nan nan 86 85 78 68 68 76 nan 70 nan 73 72 77 71 74 71 64 68 71 73 73 72
71 nan nan nan 43 46 nan 46 54 nan 82 81 90 79 75 75 87 77 63 60 59 51 44 40 55 nan nan 11 25 32 31 38 48 86 84 99 111 86 72 93 157 71 71 56 49 49 37 27 26 35 33 43 47 50 49 53 58 60 68 73 78 78 77 78 78 71 81 87 86 74 67 nan 79 nan nan 83 nan nan nan nan 72 74 76 72 nan 79 71 79 75 77 78 67 68 74 77 76 74
nan 72 nan nan nan nan 44 46 50 57 45 53 79 84 71 67 58 40 28 26 35 41 33 33 nan 30 nan nan nan nan nan 20 24 355 90 73 69 78 79 95 88 128 131 74 49 37 30 27 27 31 38 43 44 45 55 56 64 64 67 72 74 80 80 81 79 67 68 80 95 88 78 nan 82 87 95 nan 90 nan nan nan nan nan nan 62 64 78 71 77 77 80 78 72 72 77 75 81 79
103 89 66 51 32 22 19 24 26 41 33 24 nan 77 68 63 25 26 18 13 18 27 31 nan 20 nan 26 nan nan 22 27 nan 0 8 68 75 66 73 66 56 78 85 93 115 57 40 34 30 27 27 33 39 43 50 51 53 71 67 66 69 67 72 85 86 85 75 74 77 81 93 nan 89 72 nan nan nan nan nan nan nan nan 69 66 69 66 75 67 70 75 77 85 71 67 73 75 73 77
nan 72 nan 73 67 nan nan nan nan 22 12 5 40 nan 53 37 11 14 13 11 7 20 20 11 14 21 nan 21 nan 22 13 20 16 17 40 52 66 70 62 64 78 90 92 64 54 47 38 27 24 26 30 33 47 50 58 63 65 67 70 68 69 66 74 85 88 81 74 74 78 85 85 87 nan nan 88 84 nan 79 68 nan 72 74 65 nan 61 72 73 75 75 74 79 77 70 76 77 75 71
nan nan 72 nan nan 20 13 nan nan nan 12 nan nan nan nan nan nan nan 10 11 10 nan 17 15 14 16 9 16 6 21 8 nan 28 41 52 55 54 73 63 59 79 56 53 46 46 47 29 21 14 14 24 32 46 56 56 58 68 76 73 73 72 73 76 82 87 84 82 81 78 79 84 90 nan 81 78 81 79 nan nan nan 73 75 76 66 71 79 70 74 78 72 75 77 72 78 76 74 76
87 nan nan nan nan nan nan nan nan nan 4 16 nan 23 nan nan nan nan nan 11 15 16 nan 20 17 14 6 nan 354 17 3 19 14 41 60 67 76 75 71 70 73 64 51 44 45 43 16 7 15 18 25 38 50 60 61 65 72 78 78 78 77 77 72 81 84 82 76 83 87 80 81 84 86 93 86 81 78 76 72 76 76 84 88 83 74 67 69 68 70 72 66 72 65 58 70 72 72
82 81 nan 75 nan nan nan nan nan nan nan nan nan nan nan nan nan nan nan nan 17 16 nan 16 13 nan 3 4 3 1 349 5 18 33 39 94 81 71 66 68 72 57 59 51 43 35 13 10 12 29 39 51 62 69 74 70 69 70 78 80 87 85 84 87 87 88 85 77 81 89 89 82 83 83 92 86 78 74 75 77 78 84 83 87 87 81 69 66 65 66 61 62 64 65 62 71 73
nan nan nan nan nan nan nan nan nan nan nan nan nan nan nan nan nan nan nan nan nan 12 nan 13 6 4 2 nan 1 356 354 6 6 39 339 88 88 76 77 66 58 61 61 43 36 20 20 8 13 36 49 57 70 75 65 63 68 73 75 82 80 84 83 84 89 91 85 86 78 83 89 84 86 88 81 89 90 88 84 80 79 76 73 72 74 nan nan 66 70 64 62 57 61 59 64 54 64
nan 43 59 nan nan nan nan nan nan nan nan nan nan nan nan nan nan nan nan nan 30 nan nan 7 nan nan 6 356 5 358 359 360 20 44 345 61 80 85 73 65 66 63 57 43 20 22 16 17 17 44 55 68 67 77 74 73 76 77 74 77 81 83 84 86 86 86 89 86 79 74 73 79 84 88 91 84 83 88 87 86 88 78 69 62 64 nan nan nan 67 72 61 60 54 60 63 61 64
65 nan nan 14 nan nan nan nan nan nan 39 nan nan nan nan nan nan nan nan 5 30 nan 355 8 nan 353 4 5 nan nan 346 10 nan 54 46 36 73 78 72 72 65 56 48 30 26 23 27 29 37 50 61 75 80 74 91 86 77 73 77 71 71 73 73 73 80 84 85 90 94 85 78 72 74 80 90 91 90 85 84 85 81 80 81 80 70 65 71 71 71 72 74 55 53 55 68 68 75
nan nan nan 153 nan nan nan nan nan nan nan nan nan nan nan nan nan nan nan nan nan nan nan nan 352 0 8 360 357 1 5 13 357 110 90 36 70 85 84 76 59 43 39 30 36 34 46 46 50 62 74 80 83 89 84 89 90 82 78 81 83 83 82 81 77 81 84 84 86 93 91 83 67 73 72 78 77 77 82 81 81 76 72 80 81 71 66 73 73 74 77 78 60 51 nan nan 70
nan nan nan nan 111 nan nan nan nan nan nan nan nan nan nan nan nan nan nan nan nan nan nan nan nan 10 15 352 13 2 32 41 359 14 42 23 46 41 67 80 59 47 33 37 44 42 60 77 75 76 82 75 79 81 77 80 81 87 82 75 70 74 80 79 81 76 78 79 83 87 92 94 80 65 74 79 82 76 70 78 83 81 72 66 75 82 73 68 71 69 74 78 77 57 50 nan 61
nan nan nan 60 nan nan nan nan nan nan nan nan nan nan nan nan 4 nan nan nan nan nan nan nan nan 23 nan nan 3 21 nan 3 24 26 48 14 34 66 62 65 63 51 51 44 53 58 77 88 83 87 86 85 87 85 85 80 82 72 77 74 75 69 63 64 64 65 64 68 77 80 84 78 86 83 61 nan nan 86 76 67 73 83 87 74 60 72 79 nan nan 67 nan 69 72 65 57 54 63
nan nan nan nan nan nan nan nan nan nan nan nan nan nan nan 141 nan nan nan nan nan nan nan nan 19 26 nan 3 347 23 16 14 34 27 38 26 27 37 36 44 37 53 64 60 62 73 82 75 88 93 88 93 83 81 76 71 68 73 70 66 66 65 66 71 68 67 67 67 61 64 73 77 78 91 86 65 69 72 78 62 59 62 74 81 69 54 60 67 nan nan 65 58 65 61 62 53 50
nan nan nan nan nan nan nan 275 285 nan nan nan nan nan nan nan 97 nan nan nan nan nan nan nan nan nan nan 10 346 3 21 33 36 26 41 36 20 20 30 10 34 46 74 79 82 89 96 93 94 96 99 91 84 71 69 68 68 62 65 65 62 60 59 63 70 67 66 68 64 72 69 79 83 64 66 73 67 70 76 81 71 53 59 75 76 69 55 55 64 55 58 62 60 63 52 58 50
nan nan nan nan nan 252 nan nan nan 309 nan 343 nan nan nan 54 nan 170 nan nan nan nan 23 nan nan nan nan 15 355 6 34 14 62 32 51 24 29 17 23 18 30 53 80 85 96 98 101 105 97 100 97 91 78 71 71 79 71 70 66 67 70 68 65 65 64 70 62 52 58 57 68 65 65 72 61 58 54 58 66 78 87 74 65 73 71 72 77 69 61 65 56 52 58 61 58 49 53
nan nan nan nan nan nan 55 nan nan nan nan nan nan 108 nan nan nan 300 nan nan nan nan nan nan nan nan nan nan nan 4 nan 351 21 54 54 27 27 21 23 4 55 59 65 83 113 112 111 111 101 100 96 84 78 75 74 75 78 77 75 70 71 70 62 58 60 63 62 61 51 47 51 61 63 71 77 64 64 72 82 81 85 92 78 70 78 86 74 73 79 70 68 56 50 56 58 57 52
nan nan nan 105 241 nan nan 253 nan 345 nan 190 nan nan 347 78 nan nan nan 90 nan nan nan nan nan nan nan 16 nan nan nan 351 11 22 38 14 25 24 9 9 60 21 87 116 89 120 129 113 105 98 89 87 86 71 77 75 74 75 75 71 64 68 65 62 63 66 72 65 60 67 60 64 74 76 66 71 76 75 76 81 83 85 90 93 88 76 78 79 69 72 77 74 61 52 53 49 48
nan nan nan nan nan 229 nan 224 133 nan nan nan nan nan 351 66 90 nan nan nan nan nan nan nan nan nan nan nan nan nan 344 354 nan 335 5 18 24 347 4 9 74 278 159 106 109 127 123 117 103 83 78 84 86 76 78 72 71 74 78 78 74 78 90 87 78 73 69 68 68 63 62 62 67 74 82 82 78 77 78 77 77 80 84 88 84 84 79 74 75 69 67 67 66 60 55 43 45
nan nan nan nan 236 257 276 8 18 nan nan nan nan nan 14 39 nan 49 30 nan nan nan nan nan nan nan nan nan nan nan 344 360 339 318 338 337 15 309 327 26 91 244 198 117 163 108 104 119 89 76 68 85 71 72 75 62 72 69 73 84 82 72 76 82 80 77 76 75 69 67 67 70 75 80 87 90 76 75 75 77 81 80 79 77 80 80 78 75 70 66 62 56 57 47 48 45 40
nan 217 nan nan 232 273 323 28 6 351 nan nan nan nan 353 nan nan nan 52 51 48 48 35 nan nan nan nan nan nan 3 353 nan 324 335 330 317 318 301 311 68 247 245 230 149 195 151 112 84 65 49 65 74 61 62 69 55 64 71 70 82 93 92 82 86 84 78 73 67 68 69 68 68 72 76 82 79 84 78 85 91 90 90 87 85 84 79 76 74 65 59 53 49 44 41 37 34 33
nan nan nan 270 279 261 nan 346 nan 24 nan nan 314 nan nan 47 nan nan nan 47 38 nan nan nan nan nan nan nan nan 7 nan 345 336 338 309 307 318 315 315 47 257 245 219 176 218 198 197 220 348 28 46 58 40 31 49 37 53 56 56 70 81 95 89 82 88 82 77 66 65 62 63 62 66 70 70 77 76 81 86 91 93 90 89 88 85 84 79 71 62 54 50 46 44 36 32 29 26
nan 296 287 284 nan nan nan nan nan nan nan nan 304 nan 14 nan nan 9 8 nan nan nan nan nan nan nan nan nan nan 2 359 346 nan 323 314 318 323 322 318 276 266 241 231 187 231 223 217 232 290 354 23 15 19 17 20 25 37 39 43 50 55 86 100 94 90 78 69 72 66 66 62 62 61 62 65 72 88 96 97 95 98 97 95 91 86 80 71 64 51 46 38 30 28 20 17 15 14
nan nan nan nan nan nan nan nan nan nan 75 nan 5 356 87 nan nan nan nan nan nan nan nan nan nan nan 352 nan nan 352 nan nan nan 328 320 321 319 317 304 269 259 243 236 210 230 234 235 254 292 320 330 348 359 351 359 11 16 15 26 22 29 31 87 122 144 131 60 56 68 51 67 72 69 67 67 72 84 93 91 105 105 94 93 81 69 58 51 32 22 18 12 9 12 9 8 0 359
nan nan nan nan 339 nan nan nan nan 29 48 nan nan 335 nan nan nan nan nan nan nan nan nan 338 nan 349 nan nan nan nan 359 nan nan 327 322 322 313 313 285 271 265 254 253 223 250 237 242 261 277 300 312 326 332 332 337 353 349 353 357 353 7 351 355 343 256 268 25 354 10 26 29 47 46 55 57 57 75 98 77 52 66 76 57 29 12 12 351 347 345 344 353 348 357 357 355 343 353
nan nan 267 329 nan nan 333 nan 33 54 45 nan nan nan nan nan nan nan nan nan nan nan nan nan nan nan nan nan nan nan 2 nan 336 329 330 316 311 301 298 288 273 269 264 251 248 256 262 266 277 293 299 308 314 318 319 327 329 329 342 342 335 334 332 307 302 305 305 275 282 322 346 13 2 7 15 3 338 351 349 350 0 16 348 300 315 323 316 316 321 331 339 343 351 345 342 334 339
nan nan nan nan nan nan nan nan nan nan nan nan nan 338 351 nan 170 nan nan nan nan nan nan nan nan nan nan nan 350 351 1 nan 337 338 330 327 317 312 311 301 298 280 283 271 264 264 263 262 282 287 295 304 305 309 310 309 311 314 326 328 324 316 322 313 299 295 284 287 295 300 327 340 352 351 347 346 337 338 352 340 343 3 305 312 317 320 314 309 321 329 336 338 340 332 330 329 329
nan nan nan nan nan nan nan nan nan nan nan nan nan 298 60 nan nan nan nan nan nan nan nan nan nan nan nan nan nan 344 355 343 341 345 333 331 320 313 300 297 307 289 279 286 285 273 267 263 281 283 290 294 296 294 294 296 301 306 310 317 320 310 307 297 289 286 281 289 297 305 311 321 336 326 332 359 337 346 355 2 14 330 321 325 335 334 327 321 322 331 329 327 328 323 322 323 319
nan nan nan nan 312 nan nan nan nan nan nan nan 285 nan nan nan nan nan nan nan nan nan nan nan nan nan nan nan nan nan 351 340 353 344 341 336 333 329 314 301 305 299 298 290 282 278 282 274 278 281 282 284 288 290 292 292 298 301 303 306 311 309 308 305 293 281 282 282 284 294 310 308 315 333 325 333 316 342 353 358 349 328 327 330 327 330 324 316 320 315 323 322 326 nan nan 324 321
nan nan nan nan 270 nan nan 279 nan nan nan nan nan nan nan nan nan nan 147 nan nan nan nan nan nan nan nan nan 343 337 344 353 357 340 337 331 332 323 310 308 304 299 291 280 281 283 289 282 282 288 284 287 288 287 290 289 291 296 300 302 307 304 302 291 293 288 289 287 283 293 300 311 317 330 316 315 320 320 337 343 325 324 323 322 316 309 306 314 314 nan 324 nan nan nan nan nan nan
nan nan nan nan nan 261 254 nan nan nan nan nan nan nan nan nan nan nan 269 220 nan nan nan nan nan nan nan nan 326 329 331 340 354 331 332 333 332 325 316 325 314 306 296 289 285 281 289 288 292 288 286 289 288 286 288 290 289 294 295 299 303 299 298 288 291 295 296 292 299 297 304 308 315 312 314 331 324 330 319 320 323 324 321 nan nan nan nan nan nan nan nan nan nan nan nan nan nan